Time,TemperatureF,DewpointF,PressureIn,WindDirection,WindDirectionDegrees,WindSpeedMPH,WindSpeedGustMPH,Humidity,HourlyPrecipIn,Conditions,Clouds,dailyrainin,SoftwareType,DateUTC
2013-08-25 07:12:00,75.0,72.0,30.05,East,96,0.0,3.0,89,0.00,,,0.00,,2013-08-25 12:12:00,
2013-08-25 07:22:00,75.0,71.0,30.05,East,96,0.0,1.0,88,0.00,,,0.00,,2013-08-25 12:22:00,
2013-08-25 07:43:00,75.0,71.0,30.06,East,96,0.0,5.0,87,0.00,,,0.00,,2013-08-25 12:43:00,
2013-08-25 07:52:00,76.0,72.0,30.07,East,96,0.0,3.0,87,0.00,,,0.00,,2013-08-25 12:52:00,
2013-08-25 08:12:00,77.0,73.0,30.07,East,96,0.0,2.0,87,0.00,,,0.00,,2013-08-25 13:12:00,
2013-08-25 08:21:00,78.0,74.0,30.07,East,92,0.0,3.0,88,0.00,,,0.00,,2013-08-25 13:21:00,
2013-08-25 08:42:00,78.0,74.0,30.06,East,86,0.0,5.0,89,0.00,,,0.00,,2013-08-25 13:42:00,
2013-08-25 08:52:00,79.0,76.0,30.06,East,101,2.0,10.0,90,0.00,,,0.00,,2013-08-25 13:52:00,
2013-08-25 09:11:00,80.0,76.0,30.06,East,93,0.0,6.0,89,0.00,,,0.00,,2013-08-25 14:11:00,
2013-08-25 09:25:00,81.0,77.0,30.06,ESE,102,4.0,9.0,89,0.00,,,0.00,,2013-08-25 14:25:00,
2013-08-25 09:52:00,83.0,79.0,30.08,ESE,104,3.0,13.0,88,0.00,,,0.00,,2013-08-25 14:52:00,
2013-08-25 10:23:00,83.0,79.0,30.09,ESE,118,3.0,12.0,87,0.00,,,0.00,,2013-08-25 15:23:00,
2013-08-25 10:44:00,84.0,79.0,30.09,ESE,106,6.0,11.0,84,0.00,,,0.00,,2013-08-25 15:44:00,
2013-08-25 10:55:00,85.0,80.0,30.09,ESE,117,5.0,13.0,84,0.00,,,0.00,,2013-08-25 15:55:00,
2013-08-25 11:24:00,85.0,80.0,30.10,East,92,7.0,15.0,84,0.00,,,0.00,,2013-08-25 16:24:00,
2013-08-25 11:44:00,85.0,78.0,30.10,East,94,6.0,12.0,81,0.00,,,0.00,,2013-08-25 16:44:00,
2013-08-25 11:54:00,86.0,80.0,30.09,East,96,3.0,10.0,82,0.00,,,0.00,,2013-08-25 16:54:00,
2013-08-25 12:11:00,86.0,79.0,30.09,East,86,1.0,11.0,81,0.00,,,0.00,,2013-08-25 17:11:00,
2013-08-25 12:22:00,86.0,79.0,30.09,ESE,117,6.0,15.0,79,0.00,,,0.00,,2013-08-25 17:22:00,
2013-08-25 12:43:00,87.0,80.0,30.09,East,92,6.0,15.0,79,0.00,,,0.00,,2013-08-25 17:43:00,
2013-08-25 12:53:00,87.0,79.0,30.09,ESE,113,3.0,15.0,78,0.00,,,0.00,,2013-08-25 17:53:00,
2013-08-25 13:12:00,86.0,79.0,30.09,East,96,1.0,14.0,80,0.00,,,0.00,,2013-08-25 18:12:00,
2013-08-25 13:22:00,87.0,80.0,30.08,East,94,1.0,9.0,79,0.00,,,0.00,,2013-08-25 18:22:00,
2013-08-25 13:43:00,88.0,81.0,30.08,NE,51,1.0,9.0,79,0.00,,,0.00,,2013-08-25 18:43:00,
2013-08-25 13:52:00,89.0,80.0,30.08,East,96,5.0,11.0,74,0.00,,,0.00,,2013-08-25 18:52:00,
2013-08-25 14:11:00,88.0,79.0,30.07,East,99,3.0,9.0,75,0.00,,,0.00,,2013-08-25 19:11:00,
2013-08-25 14:22:00,83.0,78.0,30.08,SE,136,3.0,10.0,85,0.00,,,0.00,,2013-08-25 19:22:00,
2013-08-25 14:42:00,79.0,75.0,30.10,ESE,123,10.0,16.0,89,0.14,,,0.14,,2013-08-25 19:42:00,
2013-08-25 14:53:00,78.0,74.0,30.10,ESE,107,2.0,9.0,87,0.35,,,0.35,,2013-08-25 19:53:00,
2013-08-25 15:12:00,78.0,73.0,30.08,SE,124,1.0,10.0,86,0.36,,,0.36,,2013-08-25 20:12:00,
2013-08-25 15:23:00,79.0,74.0,30.08,ESE,107,1.0,4.0,86,0.36,,,0.36,,2013-08-25 20:23:00,
2013-08-25 15:43:00,79.0,75.0,30.09,ESE,109,2.0,7.0,87,0.19,,,0.36,,2013-08-25 20:43:00,
2013-08-25 15:53:00,79.0,75.0,30.08,ESE,109,0.0,7.0,87,0.01,,,0.36,,2013-08-25 20:53:00,
2013-08-25 16:12:00,80.0,76.0,30.07,ESE,109,0.0,1.0,87,0.00,,,0.36,,2013-08-25 21:12:00,
2013-08-25 16:22:00,81.0,77.0,30.06,ESE,109,1.0,5.0,87,0.00,,,0.36,,2013-08-25 21:22:00,
2013-08-25 16:55:00,82.0,78.0,30.06,ESE,108,0.0,7.0,89,0.00,,,0.36,,2013-08-25 21:55:00,
2013-08-25 17:24:00,83.0,79.0,30.06,ESE,109,3.0,8.0,88,0.00,,,0.36,,2013-08-25 22:24:00,
2013-08-25 17:53:00,83.0,78.0,30.06,ESE,104,6.0,10.0,86,0.00,,,0.36,,2013-08-25 22:53:00,
2013-08-25 18:12:00,83.0,78.0,30.06,SE,126,3.0,11.0,86,0.00,,,0.36,,2013-08-25 23:12:00,
2013-08-25 18:23:00,83.0,78.0,30.06,ESE,119,3.0,9.0,86,0.00,,,0.36,,2013-08-25 23:23:00,
2013-08-25 18:42:00,83.0,78.0,30.06,East,98,1.0,7.0,86,0.00,,,0.36,,2013-08-25 23:42:00,
2013-08-25 18:53:00,82.0,78.0,30.06,ESE,123,2.0,9.0,87,0.00,,,0.36,,2013-08-25 23:53:00,
2013-08-25 19:11:00,82.0,78.0,30.07,ESE,117,1.0,7.0,87,0.00,,,0.36,,2013-08-26 00:11:00,
2013-08-25 19:22:00,82.0,78.0,30.07,ESE,116,0.0,4.0,88,0.00,,,0.36,,2013-08-26 00:22:00,
2013-08-25 19:42:00,81.0,77.0,30.07,ESE,116,0.0,5.0,89,0.00,,,0.36,,2013-08-26 00:42:00,
2013-08-25 19:52:00,81.0,77.0,30.07,ESE,116,0.0,2.0,89,0.00,,,0.36,,2013-08-26 00:52:00,
2013-08-25 20:11:00,80.0,76.0,30.08,ESE,116,0.0,1.0,89,0.00,,,0.36,,2013-08-26 01:11:00,
2013-08-25 20:22:00,80.0,76.0,30.08,South,169,0.0,5.0,89,0.00,,,0.36,,2013-08-26 01:22:00,
2013-08-25 20:42:00,80.0,76.0,30.08,SSE,164,1.0,5.0,89,0.00,,,0.36,,2013-08-26 01:42:00,
2013-08-25 20:52:00,80.0,76.0,30.08,SSE,163,0.0,2.0,89,0.00,,,0.36,,2013-08-26 01:52:00,
2013-08-25 21:22:00,79.0,76.0,30.09,SSE,163,0.0,0.0,90,0.00,,,0.36,,2013-08-26 02:22:00,
2013-08-25 21:42:00,79.0,76.0,30.09,SSE,163,0.0,0.0,90,0.00,,,0.36,,2013-08-26 02:42:00,
2013-08-25 21:52:00,79.0,76.0,30.10,SSE,163,0.0,0.0,90,0.00,,,0.36,,2013-08-26 02:52:00,
2013-08-25 22:11:00,79.0,76.0,30.11,SSE,163,0.0,0.0,90,0.00,,,0.36,,2013-08-26 03:11:00,
2013-08-25 22:22:00,78.0,75.0,30.11,SSE,163,0.0,0.0,90,0.00,,,0.36,,2013-08-26 03:22:00,
2013-08-25 22:44:00,78.0,75.0,30.11,SSE,163,0.0,0.0,90,0.00,,,0.36,,2013-08-26 03:44:00,
2013-08-25 22:56:00,78.0,75.0,30.11,SSE,163,0.0,0.0,90,0.00,,,0.36,,2013-08-26 03:56:00,
2013-08-25 23:14:00,77.0,74.0,30.11,SSE,163,0.0,0.0,89,0.00,,,0.36,,2013-08-26 04:14:00,
2013-08-25 23:53:00,77.0,74.0,30.11,SSE,163,0.0,0.0,89,0.00,,,0.36,,2013-08-26 04:53:00,